Location: The Saddle
(36.8333°N, 80.3417°W)
Time: 07:01:42
(UTC-04:00)

Vanguard 2 Rocket - Pass Details

Date: 30 January 2023
Orbit: 555 x 3316 km, 32.9° (Epoch: 27 March)

Event Time Altitude Azimuth Distance (km) Brightness Sun altitude
Rises 11:23:38 0° 234° (SW) 3,102 9.8 33.0°
Reaches altitude 10° 11:26:29 10° 222° (SW) 1,983 9.1 33.2°
Maximum altitude 11:30:06 27° 163° (SSE) 1,089 10.2 33.5°
Drops below altitude 10° 11:33:29 10° 103° (ESE) 1,839 9.0 33.7°
Sets 11:36:01 0° 91° (E) 2,826 9.6 33.8°
